Time,TemperatureF,DewpointF,PressureIn,WindDirection,WindDirectionDegrees,WindSpeedMPH,WindSpeedGustMPH,Humidity,HourlyPrecipIn,Conditions,Clouds,dailyrainin,SoftwareType,DateUTC
2013-12-13 00:05:00,42.8,40.4,29.68,South,185,0.0,5.4,91,0.08,,,0.08,VWS V12.07,2013-12-13 08:05:00,
2013-12-13 00:11:00,42.8,40.4,29.68,South,189,0.0,5.4,91,0.08,,,0.08,VWS V12.07,2013-12-13 08:11:00,
2013-12-13 00:17:00,42.6,40.5,29.68,East,92,0.0,5.4,92,0.08,,,0.08,VWS V12.07,2013-12-13 08:17:00,
2013-12-13 00:22:00,42.6,40.5,29.68,East,92,0.0,5.4,92,0.08,,,0.08,VWS V12.07,2013-12-13 08:22:00,
2013-12-13 00:28:00,42.4,40.0,29.68,East,101,0.0,5.4,91,0.08,,,0.08,VWS V12.07,2013-12-13 08:28:00,
2013-12-13 00:33:00,42.4,40.0,29.68,East,88,0.0,5.4,91,0.08,,,0.08,VWS V12.07,2013-12-13 08:33:00,
2013-12-13 00:39:00,42.3,39.8,29.68,East,88,0.0,5.4,91,0.08,,,0.08,VWS V12.07,2013-12-13 08:39:00,
2013-12-13 00:44:00,42.3,39.8,29.68,East,88,0.0,5.4,91,0.08,,,0.08,VWS V12.07,2013-12-13 08:44:00,
2013-12-13 00:50:00,42.1,39.7,29.68,East,89,0.0,5.4,91,0.08,,,0.08,VWS V12.07,2013-12-13 08:50:00,
2013-12-13 00:55:00,42.1,39.7,29.68,East,88,0.0,5.4,91,0.08,,,0.08,VWS V12.07,2013-12-13 08:55:00,
2013-12-13 01:01:00,41.9,39.5,29.68,East,88,0.0,0.0,91,0.08,,,0.08,VWS V12.07,2013-12-13 09:01:00,
2013-12-13 01:06:00,41.9,39.5,29.68,East,88,0.0,0.0,91,0.08,,,0.08,VWS V12.07,2013-12-13 09:06:00,
2013-12-13 01:12:00,41.9,39.5,29.68,East,88,0.0,0.0,91,0.08,,,0.08,VWS V12.07,2013-12-13 09:12:00,
2013-12-13 01:17:00,41.9,39.5,29.68,East,88,0.0,0.0,91,0.08,,,0.08,VWS V12.07,2013-12-13 09:17:00,
2013-12-13 01:23:00,41.9,39.8,29.68,East,88,0.0,0.0,92,0.08,,,0.08,VWS V12.07,2013-12-13 09:23:00,
2013-12-13 01:28:00,41.7,39.6,29.68,East,87,0.0,0.0,92,0.08,,,0.08,VWS V12.07,2013-12-13 09:28:00,
2013-12-13 01:34:00,41.7,39.6,29.68,ENE,78,0.0,4.9,92,0.08,,,0.08,VWS V12.07,2013-12-13 09:34:00,
2013-12-13 01:40:00,41.7,39.6,29.68,East,98,0.0,4.9,92,0.08,,,0.08,VWS V12.07,2013-12-13 09:40:00,
2013-12-13 01:45:00,41.7,39.6,29.68,East,98,0.0,4.9,92,0.08,,,0.08,VWS V12.07,2013-12-13 09:45:00,
2013-12-13 01:50:00,41.7,39.6,29.68,SE,124,0.0,4.9,92,0.08,,,0.08,VWS V12.07,2013-12-13 09:50:00,
2013-12-13 01:55:00,41.7,39.6,29.71,SSE,165,0.0,4.9,92,0.08,,,0.08,VWS V12.07,2013-12-13 09:55:00,
2013-12-13 02:01:00,41.7,39.6,29.71,NE,36,3.6,4.0,92,0.00,,,0.08,VWS V12.07,2013-12-13 10:01:00,
2013-12-13 02:07:00,41.9,39.8,29.71,East,99,0.0,5.4,92,0.00,,,0.08,VWS V12.07,2013-12-13 10:07:00,
2013-12-13 02:12:00,41.9,39.8,29.71,South,170,4.0,5.4,92,0.00,,,0.08,VWS V12.07,2013-12-13 10:12:00,
2013-12-13 02:17:00,41.9,40.0,29.71,East,91,0.0,5.4,93,0.00,,,0.08,VWS V12.07,2013-12-13 10:17:00,
2013-12-13 02:23:00,42.1,40.2,29.71,East,91,0.0,5.4,93,0.00,,,0.08,VWS V12.07,2013-12-13 10:23:00,
2013-12-13 02:29:00,42.1,40.2,29.71,East,79,0.0,5.4,93,0.00,,,0.08,VWS V12.07,2013-12-13 10:29:00,
2013-12-13 02:34:00,42.1,40.2,29.71,East,87,0.0,5.4,93,0.00,,,0.08,VWS V12.07,2013-12-13 10:34:00,
2013-12-13 02:40:00,42.3,40.4,29.74,ENE,74,0.0,5.4,93,0.00,,,0.08,VWS V12.07,2013-12-13 10:40:00,
2013-12-13 02:45:00,42.3,40.4,29.74,ENE,74,0.0,5.4,93,0.00,,,0.08,VWS V12.07,2013-12-13 10:45:00,
2013-12-13 02:51:00,42.3,40.4,29.74,East,90,0.0,5.4,93,0.00,,,0.08,VWS V12.07,2013-12-13 10:51:00,
2013-12-13 02:56:00,42.3,40.4,29.74,East,101,0.0,5.4,93,0.00,,,0.08,VWS V12.07,2013-12-13 10:56:00,
2013-12-13 03:02:00,42.1,40.2,29.74,SE,132,0.0,0.0,93,0.00,,,0.08,VWS V12.07,2013-12-13 11:02:00,
2013-12-13 03:07:00,42.1,40.2,29.74,SE,132,0.0,0.0,93,0.00,,,0.08,VWS V12.07,2013-12-13 11:07:00,
2013-12-13 03:13:00,42.1,40.5,29.74,East,83,0.0,0.0,94,0.00,,,0.08,VWS V12.07,2013-12-13 11:13:00,
2013-12-13 03:19:00,42.1,40.5,29.74,SSE,149,0.0,5.4,94,0.00,,,0.08,VWS V12.07,2013-12-13 11:19:00,
2013-12-13 03:24:00,42.1,40.5,29.74,SE,127,0.0,5.4,94,0.00,,,0.08,VWS V12.07,2013-12-13 11:24:00,
2013-12-13 03:29:00,42.1,40.5,29.74,SE,126,0.0,5.4,94,0.00,,,0.08,VWS V12.07,2013-12-13 11:29:00,
2013-12-13 03:35:00,42.1,40.5,29.74,SE,126,0.0,5.4,94,0.00,,,0.08,VWS V12.07,2013-12-13 11:35:00,
2013-12-13 03:40:00,42.1,40.5,29.74,SE,135,0.0,5.4,94,0.00,,,0.08,VWS V12.07,2013-12-13 11:40:00,
2013-12-13 03:46:00,42.3,40.7,29.74,ESE,103,0.0,5.4,94,0.00,,,0.08,VWS V12.07,2013-12-13 11:46:00,
2013-12-13 03:51:00,42.3,40.7,29.74,ENE,76,0.0,5.4,94,0.00,,,0.08,VWS V12.07,2013-12-13 11:51:00,
2013-12-13 03:56:00,42.3,40.7,29.74,ENE,76,0.0,5.4,94,0.00,,,0.08,VWS V12.07,2013-12-13 11:56:00,
2013-12-13 04:02:00,42.3,40.7,29.74,ENE,76,0.0,0.0,94,0.00,,,0.08,VWS V12.07,2013-12-13 12:02:00,
2013-12-13 04:08:00,42.3,40.7,29.74,SSE,152,0.0,0.0,94,0.00,,,0.08,VWS V12.07,2013-12-13 12:08:00,
2013-12-13 04:13:00,42.3,40.7,29.74,East,84,0.0,0.0,94,0.00,,,0.08,VWS V12.07,2013-12-13 12:13:00,
2013-12-13 04:19:00,42.3,40.9,29.74,ESE,115,0.0,0.0,95,0.00,,,0.08,VWS V12.07,2013-12-13 12:19:00,
2013-12-13 04:24:00,42.3,40.9,29.77,East,82,0.0,0.0,95,0.00,,,0.08,VWS V12.07,2013-12-13 12:24:00,
2013-12-13 04:26:00,42.3,40.9,29.77,East,82,0.0,0.0,95,0.00,,,0.08,VWS V12.07,2013-12-13 12:26:00,
2013-12-13 04:31:00,42.4,41.1,29.77,ENE,70,0.0,0.0,95,0.00,,,0.08,VWS V12.07,2013-12-13 12:31:00,
2013-12-13 04:37:00,42.4,41.1,29.74,ENE,70,0.0,0.0,95,0.00,,,0.08,VWS V12.07,2013-12-13 12:37:00,
2013-12-13 04:42:00,42.4,41.1,29.74,ENE,70,0.0,0.0,95,0.00,,,0.08,VWS V12.07,2013-12-13 12:42:00,
2013-12-13 04:48:00,42.4,41.1,29.74,ENE,70,0.0,0.0,95,0.00,,,0.08,VWS V12.07,2013-12-13 12:48:00,
2013-12-13 04:53:00,42.4,41.1,29.77,ENE,70,0.0,0.0,95,0.00,,,0.08,VWS V12.07,2013-12-13 12:53:00,
2013-12-13 04:59:00,42.4,41.1,29.77,ENE,70,0.0,0.0,95,0.00,,,0.08,VWS V12.07,2013-12-13 12:59:00,
2013-12-13 05:04:00,42.4,41.1,29.77,ENE,70,0.0,0.0,95,0.00,,,0.08,VWS V12.07,2013-12-13 13:04:00,
2013-12-13 05:10:00,42.4,41.1,29.77,ENE,70,0.0,0.0,95,0.00,,,0.08,VWS V12.07,2013-12-13 13:10:00,
2013-12-13 05:15:00,42.4,41.1,29.77,ENE,70,0.0,0.0,95,0.00,,,0.08,VWS V12.07,2013-12-13 13:15:00,
2013-12-13 05:20:00,42.4,41.1,29.77,ENE,70,0.0,0.0,95,0.00,,,0.08,VWS V12.07,2013-12-13 13:20:00,
2013-12-13 05:25:00,42.4,41.1,29.77,ENE,70,0.0,0.0,95,0.00,,,0.08,VWS V12.07,2013-12-13 13:25:00,
2013-12-13 05:31:00,42.4,41.1,29.77,ENE,70,0.0,0.0,95,0.00,,,0.08,VWS V12.07,2013-12-13 13:31:00,
2013-12-13 05:36:00,42.4,41.1,29.77,ENE,70,0.0,0.0,95,0.00,,,0.08,VWS V12.07,2013-12-13 13:36:00,
2013-12-13 05:42:00,42.4,41.1,29.77,East,87,0.0,0.0,95,0.00,,,0.08,VWS V12.07,2013-12-13 13:42:00,
2013-12-13 05:47:00,42.4,41.1,29.77,East,87,0.0,0.0,95,0.00,,,0.08,VWS V12.07,2013-12-13 13:47:00,
2013-12-13 05:53:00,42.4,41.1,29.77,East,87,0.0,0.0,95,0.00,,,0.08,VWS V12.07,2013-12-13 13:53:00,
2013-12-13 05:59:00,42.4,41.1,29.77,East,87,0.0,0.0,95,0.00,,,0.08,VWS V12.07,2013-12-13 13:59:00,
2013-12-13 06:04:00,42.4,41.4,29.77,SE,135,0.0,0.0,96,0.00,,,0.08,VWS V12.07,2013-12-13 14:04:00,
2013-12-13 06:10:00,42.4,41.4,29.77,SE,135,0.0,0.0,96,0.00,,,0.08,VWS V12.07,2013-12-13 14:10:00,
2013-12-13 06:15:00,42.4,41.4,29.77,SE,135,0.0,0.0,96,0.00,,,0.08,VWS V12.07,2013-12-13 14:15:00,
2013-12-13 06:21:00,42.4,41.4,29.77,ENE,73,0.0,0.0,96,0.00,,,0.08,VWS V12.07,2013-12-13 14:21:00,
2013-12-13 06:26:00,42.4,41.4,29.77,ENE,73,0.0,0.0,96,0.00,,,0.08,VWS V12.07,2013-12-13 14:26:00,
2013-12-13 06:32:00,42.4,41.4,29.77,ENE,73,0.0,0.0,96,0.00,,,0.08,VWS V12.07,2013-12-13 14:32:00,
2013-12-13 06:37:00,42.4,41.4,29.77,ENE,73,0.0,0.0,96,0.00,,,0.08,VWS V12.07,2013-12-13 14:37:00,
2013-12-13 06:43:00,42.4,41.4,29.77,ENE,73,0.0,0.0,96,0.00,,,0.08,VWS V12.07,2013-12-13 14:43:00,
2013-12-13 06:48:00,42.4,41.4,29.77,ENE,73,0.0,0.0,96,0.00,,,0.08,VWS V12.07,2013-12-13 14:48:00,
2013-12-13 06:54:00,42.4,41.4,29.80,ENE,73,0.0,0.0,96,0.00,,,0.08,VWS V12.07,2013-12-13 14:54:00,
2013-12-13 06:59:00,42.4,41.4,29.80,SE,134,0.0,0.0,96,0.00,,,0.08,VWS V12.07,2013-12-13 14:59:00,
2013-12-13 07:05:00,42.4,41.4,29.80,SE,134,0.0,0.0,96,0.00,,,0.08,VWS V12.07,2013-12-13 15:05:00,
2013-12-13 07:11:00,42.4,41.4,29.80,SE,134,0.0,0.0,96,0.00,,,0.08,VWS V12.07,2013-12-13 15:11:00,
2013-12-13 07:16:00,42.4,41.4,29.80,SE,134,0.0,0.0,96,0.00,,,0.08,VWS V12.07,2013-12-13 15:16:00,
2013-12-13 07:22:00,42.4,41.4,29.80,SE,134,0.0,0.0,96,0.00,,,0.08,VWS V12.07,2013-12-13 15:22:00,
2013-12-13 07:27:00,42.4,41.4,29.80,SE,133,0.0,0.0,96,0.00,,,0.08,VWS V12.07,2013-12-13 15:27:00,
2013-12-13 07:33:00,42.4,41.4,29.80,SE,133,0.0,0.0,96,0.00,,,0.08,VWS V12.07,2013-12-13 15:33:00,
2013-12-13 07:38:00,42.4,41.4,29.80,SE,134,0.0,0.0,96,0.00,,,0.08,VWS V12.07,2013-12-13 15:38:00,
2013-12-13 07:44:00,42.4,41.4,29.80,SE,134,0.0,0.0,96,0.00,,,0.08,VWS V12.07,2013-12-13 15:44:00,
2013-12-13 07:49:00,42.4,41.4,29.80,SE,134,0.0,0.0,96,0.00,,,0.08,VWS V12.07,2013-12-13 15:49:00,
2013-12-13 07:55:00,42.4,41.4,29.80,SE,134,0.0,0.0,96,0.00,,,0.08,VWS V12.07,2013-12-13 15:55:00,
2013-12-13 08:01:00,42.4,41.4,29.80,SE,134,0.0,0.0,96,0.00,,,0.08,VWS V12.07,2013-12-13 16:01:00,
2013-12-13 08:06:00,42.4,41.4,29.80,SE,134,0.0,0.0,96,0.00,,,0.08,VWS V12.07,2013-12-13 16:06:00,
2013-12-13 08:12:00,42.4,41.4,29.83,SE,134,0.0,0.0,96,0.00,,,0.08,VWS V12.07,2013-12-13 16:12:00,
2013-12-13 08:17:00,42.6,41.6,29.83,SE,133,0.0,0.0,96,0.00,,,0.08,VWS V12.07,2013-12-13 16:17:00,
2013-12-13 08:23:00,42.6,41.6,29.83,SE,134,0.0,0.0,96,0.00,,,0.08,VWS V12.07,2013-12-13 16:23:00,
2013-12-13 08:28:00,42.8,41.7,29.83,SE,133,0.0,0.0,96,0.00,,,0.08,VWS V12.07,2013-12-13 16:28:00,
2013-12-13 08:34:00,42.8,41.7,29.83,SE,133,0.0,0.0,96,0.00,,,0.08,VWS V12.07,2013-12-13 16:34:00,
2013-12-13 08:39:00,42.8,41.7,29.83,SE,133,0.0,0.0,96,0.00,,,0.08,VWS V12.07,2013-12-13 16:39:00,
2013-12-13 08:44:00,42.8,41.7,29.83,SE,133,0.0,0.0,96,0.00,,,0.08,VWS V12.07,2013-12-13 16:44:00,
2013-12-13 08:49:00,43.0,41.9,29.83,SE,133,0.0,0.0,96,0.00,,,0.08,VWS V12.07,2013-12-13 16:49:00,
2013-12-13 08:55:00,43.0,41.9,29.83,SE,133,0.0,0.0,96,0.00,,,0.08,VWS V12.07,2013-12-13 16:55:00,
2013-12-13 09:01:00,43.2,42.1,29.83,SE,133,0.0,0.0,96,0.00,,,0.08,VWS V12.07,2013-12-13 17:01:00,
2013-12-13 09:07:00,43.3,42.3,29.83,SE,133,0.0,0.0,96,0.00,,,0.08,VWS V12.07,2013-12-13 17:07:00,
2013-12-13 09:12:00,43.3,42.3,29.83,East,84,0.0,0.0,96,0.00,,,0.08,VWS V12.07,2013-12-13 17:12:00,
2013-12-13 09:18:00,43.3,42.3,29.83,East,83,0.0,0.0,96,0.00,,,0.08,VWS V12.07,2013-12-13 17:18:00,
2013-12-13 09:23:00,43.5,42.5,29.85,East,83,0.0,0.0,96,0.00,,,0.08,VWS V12.07,2013-12-13 17:23:00,
2013-12-13 09:29:00,43.5,42.7,29.85,East,83,0.0,0.0,97,0.00,,,0.08,VWS V12.07,2013-12-13 17:29:00,
2013-12-13 09:34:00,43.7,42.9,29.85,East,83,0.0,0.0,97,0.00,,,0.08,VWS V12.07,2013-12-13 17:34:00,
2013-12-13 09:40:00,43.7,42.6,29.85,East,83,0.0,0.0,96,0.00,,,0.08,VWS V12.07,2013-12-13 17:40:00,
2013-12-13 09:45:00,43.7,42.6,29.85,East,83,0.0,0.0,96,0.00,,,0.08,VWS V12.07,2013-12-13 17:45:00,
2013-12-13 09:51:00,43.7,42.9,29.85,East,83,0.0,0.0,97,0.00,,,0.08,VWS V12.07,2013-12-13 17:51:00,
2013-12-13 09:56:00,43.9,43.1,29.85,East,83,0.0,0.0,97,0.00,,,0.08,VWS V12.07,2013-12-13 17:56:00,
2013-12-13 10:02:00,43.9,43.1,29.85,East,83,0.0,0.0,97,0.00,,,0.08,VWS V12.07,2013-12-13 18:02:00,
2013-12-13 10:07:00,43.9,43.1,29.85,East,83,0.0,0.0,97,0.00,,,0.08,VWS V12.07,2013-12-13 18:07:00,
2013-12-13 10:13:00,43.9,42.8,29.85,East,83,0.0,0.0,96,0.00,,,0.08,VWS V12.07,2013-12-13 18:13:00,
2013-12-13 10:19:00,44.1,43.3,29.85,East,83,0.0,0.0,97,0.00,,,0.08,VWS V12.07,2013-12-13 18:19:00,
2013-12-13 10:24:00,44.1,43.3,29.88,East,83,0.0,0.0,97,0.00,,,0.08,VWS V12.07,2013-12-13 18:24:00,
2013-12-13 10:30:00,44.2,43.4,29.88,East,85,0.0,0.0,97,0.00,,,0.08,VWS V12.07,2013-12-13 18:30:00,
2013-12-13 10:35:00,44.2,43.4,29.88,SSE,147,0.0,0.0,97,0.00,,,0.08,VWS V12.07,2013-12-13 18:35:00,
2013-12-13 10:41:00,44.4,43.6,29.88,SE,126,0.0,0.0,97,0.00,,,0.08,VWS V12.07,2013-12-13 18:41:00,
2013-12-13 10:46:00,44.4,43.6,29.88,SE,124,0.0,0.0,97,0.00,,,0.08,VWS V12.07,2013-12-13 18:46:00,
2013-12-13 10:52:00,44.4,43.6,29.88,East,89,0.0,0.0,97,0.00,,,0.08,VWS V12.07,2013-12-13 18:52:00,
2013-12-13 10:57:00,44.6,43.5,29.88,East,89,0.0,0.0,96,0.00,,,0.08,VWS V12.07,2013-12-13 18:57:00,
2013-12-13 11:03:00,44.6,43.5,29.88,East,89,0.0,0.0,96,0.00,,,0.08,VWS V12.07,2013-12-13 19:03:00,
2013-12-13 11:08:00,44.6,43.5,29.88,East,89,0.0,0.0,96,0.00,,,0.08,VWS V12.07,2013-12-13 19:08:00,
2013-12-13 11:14:00,44.8,43.7,29.88,East,89,0.0,0.0,96,0.00,,,0.08,VWS V12.07,2013-12-13 19:14:00,
2013-12-13 11:19:00,44.8,43.7,29.88,East,89,0.0,0.0,96,0.00,,,0.08,VWS V12.07,2013-12-13 19:19:00,
2013-12-13 11:25:00,44.8,43.7,29.88,East,89,0.0,0.0,96,0.00,,,0.08,VWS V12.07,2013-12-13 19:25:00,
2013-12-13 11:30:00,44.8,43.7,29.88,East,89,0.0,0.0,96,0.00,,,0.08,VWS V12.07,2013-12-13 19:30:00,
2013-12-13 11:36:00,44.8,43.7,29.88,East,89,0.0,0.0,96,0.00,,,0.08,VWS V12.07,2013-12-13 19:36:00,
2013-12-13 11:42:00,44.8,43.7,29.88,East,89,0.0,0.0,96,0.00,,,0.08,VWS V12.07,2013-12-13 19:42:00,
2013-12-13 11:47:00,44.8,43.7,29.88,East,89,0.0,0.0,96,0.00,,,0.08,VWS V12.07,2013-12-13 19:47:00,
2013-12-13 11:53:00,44.8,43.7,29.85,East,91,0.0,3.1,96,0.00,,,0.08,VWS V12.07,2013-12-13 19:53:00,
2013-12-13 11:58:00,44.8,43.7,29.85,East,90,0.0,5.8,96,0.00,,,0.08,VWS V12.07,2013-12-13 19:58:00,
2013-12-13 12:03:00,45.0,43.9,29.85,East,90,0.0,5.8,96,0.00,,,0.08,VWS V12.07,2013-12-13 20:03:00,
2013-12-13 12:09:00,45.1,44.1,29.85,East,90,0.0,5.8,96,0.00,,,0.08,VWS V12.07,2013-12-13 20:09:00,
2013-12-13 12:14:00,45.3,44.2,29.85,SSE,150,0.0,5.8,96,0.00,,,0.08,VWS V12.07,2013-12-13 20:14:00,
2013-12-13 12:19:00,45.3,44.2,29.85,SSE,150,0.0,5.8,96,0.00,,,0.08,VWS V12.07,2013-12-13 20:19:00,
2013-12-13 12:25:00,45.5,44.7,29.88,SSE,150,0.0,5.8,97,0.00,,,0.08,VWS V12.07,2013-12-13 20:25:00,
2013-12-13 12:31:00,45.5,44.4,29.88,ESE,102,4.0,5.8,96,0.00,,,0.08,VWS V12.07,2013-12-13 20:31:00,
2013-12-13 12:36:00,45.5,44.4,29.88,East,91,0.0,5.8,96,0.00,,,0.08,VWS V12.07,2013-12-13 20:36:00,
2013-12-13 12:41:00,45.7,44.6,29.88,East,91,0.0,5.8,96,0.00,,,0.08,VWS V12.07,2013-12-13 20:41:00,
2013-12-13 12:46:00,45.9,45.1,29.88,SE,143,0.0,5.8,97,0.00,,,0.08,VWS V12.07,2013-12-13 20:46:00,
2013-12-13 12:52:00,45.9,44.8,29.88,SE,143,0.0,5.8,96,0.00,,,0.08,VWS V12.07,2013-12-13 20:52:00,
2013-12-13 12:57:00,45.9,44.8,29.88,SE,143,0.0,0.0,96,0.00,,,0.08,VWS V12.07,2013-12-13 20:57:00,
2013-12-13 13:03:00,45.9,44.8,29.88,ESE,122,0.0,0.0,96,0.00,,,0.08,VWS V12.07,2013-12-13 21:03:00,
2013-12-13 13:09:00,45.7,44.6,29.88,ENE,70,0.0,0.0,96,0.00,,,0.08,VWS V12.07,2013-12-13 21:09:00,
2013-12-13 13:15:00,45.9,44.8,29.88,ENE,70,0.0,0.0,96,0.00,,,0.08,VWS V12.07,2013-12-13 21:15:00,
2013-12-13 13:21:00,45.9,44.8,29.88,ENE,70,0.0,0.0,96,0.00,,,0.08,VWS V12.07,2013-12-13 21:21:00,
2013-12-13 13:26:00,45.9,44.8,29.88,ENE,70,0.0,0.0,96,0.00,,,0.08,VWS V12.07,2013-12-13 21:26:00,
2013-12-13 13:32:00,45.9,44.8,29.88,ENE,70,0.0,0.0,96,0.00,,,0.08,VWS V12.07,2013-12-13 21:32:00,
2013-12-13 13:38:00,45.9,44.8,29.91,ENE,70,0.0,0.0,96,0.00,,,0.08,VWS V12.07,2013-12-13 21:38:00,
2013-12-13 13:43:00,45.9,44.8,29.91,ENE,72,0.0,0.0,96,0.00,,,0.08,VWS V12.07,2013-12-13 21:43:00,
2013-12-13 13:49:00,45.9,44.8,29.91,ENE,72,0.0,0.0,96,0.00,,,0.08,VWS V12.07,2013-12-13 21:49:00,
2013-12-13 13:55:00,46.0,45.0,29.91,ENE,72,0.0,0.0,96,0.00,,,0.08,VWS V12.07,2013-12-13 21:55:00,
2013-12-13 14:01:00,45.9,44.8,29.91,ENE,72,0.0,0.0,96,0.00,,,0.08,VWS V12.07,2013-12-13 22:01:00,
2013-12-13 14:06:00,45.9,44.8,29.91,ENE,72,0.0,0.0,96,0.00,,,0.08,VWS V12.07,2013-12-13 22:06:00,
2013-12-13 14:12:00,45.7,44.6,29.91,ENE,72,0.0,0.0,96,0.00,,,0.08,VWS V12.07,2013-12-13 22:12:00,
2013-12-13 14:17:00,45.5,44.4,29.91,ENE,72,0.0,0.0,96,0.00,,,0.08,VWS V12.07,2013-12-13 22:17:00,
2013-12-13 14:23:00,45.5,44.4,29.91,ESE,117,0.0,0.0,96,0.00,,,0.08,VWS V12.07,2013-12-13 22:23:00,
2013-12-13 14:28:00,45.5,44.4,29.91,ESE,117,0.0,0.0,96,0.00,,,0.08,VWS V12.07,2013-12-13 22:28:00,
2013-12-13 14:34:00,45.5,44.4,29.91,ESE,117,0.0,0.0,96,0.00,,,0.08,VWS V12.07,2013-12-13 22:34:00,
2013-12-13 14:39:00,45.3,44.2,29.91,ESE,118,0.0,0.0,96,0.00,,,0.08,VWS V12.07,2013-12-13 22:39:00,
2013-12-13 14:45:00,45.3,44.2,29.91,ESE,117,0.0,0.0,96,0.00,,,0.08,VWS V12.07,2013-12-13 22:45:00,
2013-12-13 14:50:00,45.3,44.2,29.91,ESE,117,0.0,0.0,96,0.00,,,0.08,VWS V12.07,2013-12-13 22:50:00,
2013-12-13 14:55:00,45.3,44.2,29.91,ESE,117,0.0,0.0,96,0.00,,,0.08,VWS V12.07,2013-12-13 22:55:00,
2013-12-13 15:01:00,45.3,44.2,29.91,ESE,117,0.0,0.0,96,0.00,,,0.08,VWS V12.07,2013-12-13 23:01:00,
2013-12-13 15:07:00,45.3,44.2,29.91,ESE,117,0.0,0.0,96,0.00,,,0.08,VWS V12.07,2013-12-13 23:07:00,
2013-12-13 15:13:00,45.3,44.2,29.91,ESE,117,0.0,0.0,96,0.00,,,0.08,VWS V12.07,2013-12-13 23:13:00,
2013-12-13 15:18:00,45.3,44.2,29.91,ESE,117,0.0,0.0,96,0.00,,,0.08,VWS V12.07,2013-12-13 23:18:00,
2013-12-13 15:24:00,45.1,44.1,29.91,ESE,117,0.0,0.0,96,0.00,,,0.08,VWS V12.07,2013-12-13 23:24:00,
2013-12-13 15:29:00,45.1,44.1,29.91,ESE,118,0.0,0.0,96,0.00,,,0.08,VWS V12.07,2013-12-13 23:29:00,
2013-12-13 15:35:00,45.1,44.3,29.91,ESE,117,0.0,0.0,97,0.00,,,0.08,VWS V12.07,2013-12-13 23:35:00,
2013-12-13 15:40:00,45.1,44.3,29.91,ESE,117,0.0,0.0,97,0.04,,,0.12,VWS V12.07,2013-12-13 23:40:00,
2013-12-13 15:45:00,45.1,44.3,29.91,East,96,0.0,0.0,97,0.04,,,0.12,VWS V12.07,2013-12-13 23:45:00,
2013-12-13 15:50:00,45.1,44.3,29.91,East,97,0.0,0.0,97,0.04,,,0.12,VWS V12.07,2013-12-13 23:50:00,
2013-12-13 15:56:00,45.1,44.3,29.91,East,96,0.0,0.0,97,0.04,,,0.12,VWS V12.07,2013-12-13 23:56:00,
2013-12-13 16:02:00,45.1,44.3,29.91,East,97,0.0,0.0,97,0.04,,,0.12,VWS V12.07,2013-12-14 00:02:00,
2013-12-13 16:08:00,45.1,44.3,29.94,East,92,0.0,0.0,97,0.04,,,0.12,VWS V12.07,2013-12-14 00:08:00,
2013-12-13 16:14:00,45.1,44.3,29.94,ENE,73,0.0,0.0,97,0.04,,,0.12,VWS V12.07,2013-12-14 00:14:00,
2013-12-13 16:19:00,45.1,44.3,29.94,ENE,73,0.0,0.0,97,0.04,,,0.12,VWS V12.07,2013-12-14 00:19:00,
2013-12-13 16:25:00,45.1,44.3,29.91,ENE,73,0.0,0.0,97,0.04,,,0.12,VWS V12.07,2013-12-14 00:25:00,
2013-12-13 16:30:00,45.1,44.3,29.91,ENE,76,0.0,0.0,97,0.04,,,0.12,VWS V12.07,2013-12-14 00:30:00,
2013-12-13 16:35:00,45.1,44.3,29.91,ENE,76,0.0,0.0,97,0.04,,,0.12,VWS V12.07,2013-12-14 00:35:00,
2013-12-13 16:41:00,45.0,44.2,29.91,ENE,77,0.0,0.0,97,0.04,,,0.12,VWS V12.07,2013-12-14 00:41:00,
2013-12-13 16:46:00,45.0,44.2,29.91,ENE,76,0.0,0.0,97,0.04,,,0.12,VWS V12.07,2013-12-14 00:46:00,
2013-12-13 16:52:00,45.0,44.2,29.91,ENE,76,0.0,0.0,97,0.04,,,0.12,VWS V12.07,2013-12-14 00:52:00,
2013-12-13 16:57:00,45.0,44.2,29.91,ENE,76,0.0,0.0,97,0.00,,,0.12,VWS V12.07,2013-12-14 00:57:00,
2013-12-13 17:03:00,45.0,44.2,29.91,ENE,76,0.0,0.0,97,0.00,,,0.12,VWS V12.07,2013-12-14 01:03:00,
2013-12-13 17:08:00,45.0,44.2,29.91,ENE,76,0.0,0.0,97,0.00,,,0.12,VWS V12.07,2013-12-14 01:08:00,
2013-12-13 17:14:00,45.0,44.2,29.91,ESE,116,0.0,2.7,97,0.00,,,0.12,VWS V12.07,2013-12-14 01:14:00,
2013-12-13 17:19:00,45.0,44.2,29.91,ESE,116,0.0,2.7,97,0.00,,,0.12,VWS V12.07,2013-12-14 01:19:00,
2013-12-13 17:25:00,45.0,44.2,29.91,ESE,116,0.0,2.7,97,0.00,,,0.12,VWS V12.07,2013-12-14 01:25:00,
2013-12-13 17:31:00,45.0,44.2,29.91,ENE,63,0.0,2.7,97,0.00,,,0.12,VWS V12.07,2013-12-14 01:31:00,
2013-12-13 17:36:00,45.1,44.3,29.91,East,101,0.0,2.7,97,0.00,,,0.12,VWS V12.07,2013-12-14 01:36:00,
2013-12-13 17:42:00,45.1,44.3,29.91,ENE,57,0.0,2.7,97,0.00,,,0.12,VWS V12.07,2013-12-14 01:42:00,
2013-12-13 17:47:00,45.1,44.3,29.91,ENE,57,0.0,2.7,97,0.00,,,0.12,VWS V12.07,2013-12-14 01:47:00,
2013-12-13 17:53:00,45.1,44.3,29.91,ENE,57,0.0,2.7,97,0.00,,,0.12,VWS V12.07,2013-12-14 01:53:00,
2013-12-13 17:58:00,45.0,44.2,29.91,ENE,57,0.0,0.0,97,0.00,,,0.12,VWS V12.07,2013-12-14 01:58:00,
2013-12-13 18:04:00,45.0,44.2,29.91,ENE,57,0.0,0.0,97,0.00,,,0.12,VWS V12.07,2013-12-14 02:04:00,
2013-12-13 18:09:00,45.0,44.2,29.91,ENE,57,0.0,0.0,97,0.00,,,0.12,VWS V12.07,2013-12-14 02:09:00,
2013-12-13 18:15:00,45.0,44.2,29.91,ENE,57,0.0,0.0,97,0.00,,,0.12,VWS V12.07,2013-12-14 02:15:00,
2013-12-13 18:21:00,45.0,44.2,29.91,ENE,57,0.0,0.0,97,0.00,,,0.12,VWS V12.07,2013-12-14 02:21:00,
2013-12-13 18:26:00,45.0,44.2,29.91,ENE,57,0.0,0.0,97,0.00,,,0.12,VWS V12.07,2013-12-14 02:26:00,
2013-12-13 18:32:00,45.0,44.2,29.91,ENE,57,0.0,0.0,97,0.00,,,0.12,VWS V12.07,2013-12-14 02:32:00,
2013-12-13 18:37:00,45.0,44.2,29.91,ENE,57,0.0,0.0,97,0.00,,,0.12,VWS V12.07,2013-12-14 02:37:00,
2013-12-13 18:43:00,45.0,44.2,29.91,ENE,57,0.0,0.0,97,0.00,,,0.12,VWS V12.07,2013-12-14 02:43:00,
2013-12-13 18:48:00,45.0,44.2,29.91,ENE,57,0.0,0.0,97,0.00,,,0.12,VWS V12.07,2013-12-14 02:48:00,
2013-12-13 18:54:00,45.0,44.2,29.94,ENE,57,0.0,0.0,97,0.00,,,0.12,VWS V12.07,2013-12-14 02:54:00,
2013-12-13 18:59:00,45.0,44.2,29.94,ENE,57,0.0,0.0,97,0.00,,,0.12,VWS V12.07,2013-12-14 02:59:00,
2013-12-13 19:05:00,45.0,44.4,29.94,ENE,57,0.0,0.0,98,0.00,,,0.12,VWS V12.07,2013-12-14 03:05:00,
2013-12-13 19:10:00,45.1,44.6,29.94,ENE,57,0.0,0.0,98,0.00,,,0.12,VWS V12.07,2013-12-14 03:10:00,
2013-12-13 19:16:00,45.1,44.6,29.94,ENE,57,0.0,0.0,98,0.00,,,0.12,VWS V12.07,2013-12-14 03:16:00,
2013-12-13 19:21:00,45.1,44.6,29.94,ENE,57,0.0,0.0,98,0.00,,,0.12,VWS V12.07,2013-12-14 03:21:00,
2013-12-13 19:27:00,45.1,44.6,29.94,ENE,57,0.0,0.0,98,0.00,,,0.12,VWS V12.07,2013-12-14 03:27:00,
2013-12-13 19:32:00,45.1,44.6,29.94,ENE,57,0.0,0.0,98,0.00,,,0.12,VWS V12.07,2013-12-14 03:32:00,
2013-12-13 19:38:00,45.1,44.6,29.94,ENE,57,0.0,0.0,98,0.00,,,0.12,VWS V12.07,2013-12-14 03:38:00,
2013-12-13 19:43:00,45.1,44.6,29.94,ENE,57,0.0,0.0,98,0.00,,,0.12,VWS V12.07,2013-12-14 03:43:00,
2013-12-13 19:49:00,45.1,44.6,29.94,East,99,0.0,0.0,98,0.00,,,0.12,VWS V12.07,2013-12-14 03:49:00,
2013-12-13 19:55:00,45.1,44.6,29.94,East,80,0.0,0.0,98,0.00,,,0.12,VWS V12.07,2013-12-14 03:55:00,
2013-12-13 20:00:00,45.1,44.6,29.94,East,81,0.0,0.0,98,0.00,,,0.12,VWS V12.07,2013-12-14 04:00:00,
2013-12-13 20:06:00,45.1,44.6,29.94,East,83,0.0,0.0,98,0.00,,,0.12,VWS V12.07,2013-12-14 04:06:00,
2013-12-13 20:11:00,45.1,44.6,29.94,East,83,0.0,0.0,98,0.00,,,0.12,VWS V12.07,2013-12-14 04:11:00,
2013-12-13 20:17:00,45.1,44.6,29.94,East,83,0.0,0.0,98,0.00,,,0.12,VWS V12.07,2013-12-14 04:17:00,
2013-12-13 20:22:00,45.0,44.4,29.94,East,83,0.0,0.0,98,0.00,,,0.12,VWS V12.07,2013-12-14 04:22:00,
2013-12-13 20:28:00,45.0,44.4,29.94,ESE,104,0.0,0.0,98,0.00,,,0.12,VWS V12.07,2013-12-14 04:28:00,
2013-12-13 20:33:00,45.0,44.4,29.94,ESE,106,0.0,0.0,98,0.00,,,0.12,VWS V12.07,2013-12-14 04:33:00,
2013-12-13 20:38:00,45.0,44.4,29.94,East,99,0.0,0.0,98,0.00,,,0.12,VWS V12.07,2013-12-14 04:38:00,
2013-12-13 20:43:00,45.0,44.4,29.94,ESE,115,0.0,0.0,98,0.00,,,0.12,VWS V12.07,2013-12-14 04:43:00,
2013-12-13 20:49:00,45.0,44.4,29.94,ESE,115,0.0,0.0,98,0.00,,,0.12,VWS V12.07,2013-12-14 04:49:00,
2013-12-13 20:54:00,45.0,44.4,29.94,ESE,115,0.0,0.0,98,0.00,,,0.12,VWS V12.07,2013-12-14 04:54:00,
2013-12-13 21:00:00,45.0,44.4,29.94,ESE,115,0.0,0.0,98,0.00,,,0.12,VWS V12.07,2013-12-14 05:00:00,
2013-12-13 21:01:00,45.0,44.4,29.94,ESE,115,0.0,0.0,98,0.00,,,0.12,VWS V12.07,2013-12-14 05:01:00,
2013-12-13 21:02:00,45.0,44.4,29.94,ESE,115,0.0,0.0,98,0.00,,,0.12,VWS V12.07,2013-12-14 05:02:00,
2013-12-13 21:03:00,45.0,44.4,29.94,ESE,115,0.0,0.0,98,0.00,,,0.12,VWS V12.07,2013-12-14 05:03:00,
2013-12-13 21:04:00,45.0,44.4,29.94,East,80,0.0,0.0,98,0.00,,,0.12,VWS V12.07,2013-12-14 05:04:00,
2013-12-13 21:07:00,45.0,44.4,29.94,East,80,0.0,0.0,98,0.00,,,0.12,VWS V12.07,2013-12-14 05:07:00,
2013-12-13 21:12:00,44.8,44.2,29.94,East,80,0.0,0.0,98,0.00,,,0.12,VWS V12.07,2013-12-14 05:12:00,
2013-12-13 21:15:00,44.8,44.2,29.94,East,80,0.0,0.0,98,0.00,,,0.12,VWS V12.07,2013-12-14 05:15:00,
2013-12-13 21:21:00,44.8,44.2,29.94,East,80,0.0,0.0,98,0.00,,,0.12,VWS V12.07,2013-12-14 05:21:00,
2013-12-13 21:27:00,44.8,44.2,29.94,East,80,0.0,0.0,98,0.00,,,0.12,VWS V12.07,2013-12-14 05:27:00,
2013-12-13 21:32:00,44.8,44.2,29.94,East,81,0.0,0.0,98,0.00,,,0.12,VWS V12.07,2013-12-14 05:32:00,
2013-12-13 21:37:00,44.8,44.2,29.94,East,80,0.0,0.0,98,0.00,,,0.12,VWS V12.07,2013-12-14 05:37:00,
2013-12-13 21:43:00,44.8,44.2,29.94,East,80,0.0,0.0,98,0.00,,,0.12,VWS V12.07,2013-12-14 05:43:00,
2013-12-13 21:49:00,44.8,44.2,29.94,East,80,0.0,0.0,98,0.00,,,0.12,VWS V12.07,2013-12-14 05:49:00,
2013-12-13 21:54:00,44.8,44.2,29.94,East,80,0.0,0.0,98,0.00,,,0.12,VWS V12.07,2013-12-14 05:54:00,
2013-12-13 22:00:00,44.8,44.2,29.94,East,80,0.0,0.0,98,0.00,,,0.12,VWS V12.07,2013-12-14 06:00:00,
2013-12-13 22:06:00,44.8,44.2,29.94,East,81,0.0,0.0,98,0.00,,,0.12,VWS V12.07,2013-12-14 06:06:00,
2013-12-13 22:12:00,44.8,44.2,29.94,East,81,0.0,0.0,98,0.00,,,0.12,VWS V12.07,2013-12-14 06:12:00,
2013-12-13 22:18:00,44.8,44.2,29.94,East,81,0.0,0.0,98,0.00,,,0.12,VWS V12.07,2013-12-14 06:18:00,
2013-12-13 22:24:00,44.8,44.2,29.94,East,81,0.0,0.0,98,0.00,,,0.12,VWS V12.07,2013-12-14 06:24:00,
2013-12-13 22:29:00,44.8,44.2,29.94,East,81,0.0,0.0,98,0.00,,,0.12,VWS V12.07,2013-12-14 06:29:00,
2013-12-13 22:35:00,44.8,44.2,29.94,SSE,159,0.0,2.7,98,0.00,,,0.12,VWS V12.07,2013-12-14 06:35:00,
2013-12-13 22:41:00,45.0,44.4,29.94,East,89,0.0,2.7,98,0.00,,,0.12,VWS V12.07,2013-12-14 06:41:00,
2013-12-13 22:46:00,45.0,44.4,29.94,East,91,0.0,2.7,98,0.00,,,0.12,VWS V12.07,2013-12-14 06:46:00,
2013-12-13 22:52:00,44.8,44.2,29.94,East,81,0.0,3.1,98,0.00,,,0.12,VWS V12.07,2013-12-14 06:52:00,
2013-12-13 22:57:00,44.8,44.2,29.94,East,82,3.1,4.0,98,0.00,,,0.12,VWS V12.07,2013-12-14 06:57:00,
2013-12-13 23:03:00,44.8,44.2,29.94,East,79,3.1,4.0,98,0.00,,,0.12,VWS V12.07,2013-12-14 07:03:00,
2013-12-13 23:08:00,44.8,44.2,29.94,ENE,74,0.0,4.0,98,0.00,,,0.12,VWS V12.07,2013-12-14 07:08:00,
2013-12-13 23:14:00,44.8,44.2,29.94,East,88,0.0,4.0,98,0.00,,,0.12,VWS V12.07,2013-12-14 07:14:00,
2013-12-13 23:19:00,44.8,44.2,29.94,East,89,0.0,4.0,98,0.00,,,0.12,VWS V12.07,2013-12-14 07:19:00,
2013-12-13 23:25:00,44.8,44.2,29.94,SE,146,0.0,4.0,98,0.00,,,0.12,VWS V12.07,2013-12-14 07:25:00,
2013-12-13 23:30:00,44.8,44.2,29.94,East,93,0.0,4.0,98,0.00,,,0.12,VWS V12.07,2013-12-14 07:30:00,
2013-12-13 23:36:00,44.6,44.1,29.94,SE,133,0.0,4.0,98,0.00,,,0.12,VWS V12.07,2013-12-14 07:36:00,
2013-12-13 23:41:00,44.6,44.1,29.94,NNE,26,0.0,4.0,98,0.00,,,0.12,VWS V12.07,2013-12-14 07:41:00,
2013-12-13 23:46:00,44.6,44.1,29.94,ENE,72,0.0,4.0,98,0.00,,,0.12,VWS V12.07,2013-12-14 07:46:00,
2013-12-13 23:51:00,44.6,44.1,29.94,ESE,114,0.0,5.4,98,0.00,,,0.12,VWS V12.07,2013-12-14 07:51:00,
2013-12-13 23:57:00,44.6,44.1,29.94,ENE,69,0.0,0.0,98,0.00,,,0.00,VWS V12.07,2013-12-14 07:57:00,